This is the latest recevied weather packets stored in our database for station/object F1ZVN-13. If no packets are shown the sender has not sent any weather packets the latest 10 day(s).
| Time | Temp. | Humidity | Pressure | Rain* | Wind** | Luminosity | Snow |
|---|---|---|---|---|---|---|---|
| 1778224865 | 2.78° C | 68% | 1004.1 hPa | 0 mm | 0 m/s | - | - |
| 1778224865 | 2.78° C | 68% | 1004 hPa | 0 mm | 0 m/s | - | - |
| 1778224865 | 2.78° C | 68% | 1004.1 hPa | 0 mm | 0 m/s | - | - |
| 1778224865 | 2.78° C | 68% | 1004.1 hPa | 0 mm | 0 m/s | - | - |
| 1778224864 | 2.78° C | 69% | 1003.8 hPa | 0 mm | 0 m/s | - | - |
| 1778224793 | 2.78° C | 68% | 1004.1 hPa | 0 mm | 0 m/s | - | - |
| 1778224668 | 2.78° C | 68% | 1004.1 hPa | 0 mm | 0 m/s | - | - |
| 1778224545 | 2.78° C | 68% | 1004 hPa | 0 mm | 0 m/s | - | - |
| 1778224425 | 2.78° C | 68% | 1004.1 hPa | 0 mm | 0 m/s | - | - |
| 1778224311 | 2.78° C | 68% | 1004 hPa | 0 mm | 0 m/s | - | - |
| 1778224221 | 2.78° C | 68% | 1004 hPa | 0 mm | 0 m/s | - | - |
| 1778224182 | 2.78° C | 68% | 1004 hPa | 0 mm | 0 m/s | - | - |
| 1778224060 | 2.78° C | 69% | 1003.8 hPa | 0 mm | 0 m/s | - | - |
| 1778223940 | 2.78° C | 69% | 1003.8 hPa | 0 mm | 0 m/s | - | - |
| 1778223817 | 2.78° C | 68% | 1003.8 hPa | 0 mm | 0 m/s | - | - |
| 1778223703 | 2.78° C | 67% | 1003.8 hPa | 0 mm | 0 m/s | - | - |
| 1778223575 | 2.78° C | 65% | 1003.8 hPa | 0 mm | 0 m/s | - | - |
| 1778223332 | 2.78° C | 68% | 1003.8 hPa | 0 mm | 0 m/s | - | - |
| 1778223213 | 2.78° C | 65% | 1003.8 hPa | 0 mm | 0 m/s | - | - |
| 1778223090 | 2.78° C | 69% | 1003.8 hPa | 0 mm | 0 m/s | - | - |
| 1778222971 | 2.78° C | 68% | 1004 hPa | 0 mm | 0 m/s | - | - |
| 1778222605 | 2.78° C | 68% | 1003.8 hPa | 0 mm | 0 m/s | - | - |
| 1778222363 | 2.78° C | 68% | 1003.8 hPa | 0 mm | 0 m/s | - | - |
| 1778222238 | 2.78° C | 66% | 1003.7 hPa | 0 mm | 0 m/s | - | - |
| 1778222238 | 2.78° C | 68% | 1003.7 hPa | 0 mm | 0 m/s | - | - |
* Rain latest hour (hover to see other rain measurements)
** Current wind speed in m/s (hover to see current wind gust speed)